GSAT0202 (GALILEO 6)

Last updated on Sat Dec 13 2025 00:02:35 GMT+0000 (Coordinated Universal Time)

1 40129U 14050B 25345.56703504 -.00000092 00000+0 00000+0 0 9995 2 40129 49.0938 280.1950 1648515 172.9880 189.6770 1.85520366 77009
UTC large
Height (km)
Speed (km/s)
/
Latitude / Longitude
Inclination (degrees)
Orbital Period (minutes)
Azimuth
Elevation
Range (km)
Doppler Factor

Next 0 passes for location: London (51.5072 / 0.1276)

Sorry there are no passes over London.